
10:23:36 PM 611 Monday, June 22, 2020  Message :- Start Log.....!!!

windowsName : Windows 10 Home
version : 6.3
build : 19042
Product ID : 1814
64 Bit operating system? : Yes
===========================================Start==========================================
Caption : Intel64 Family 6 Model 142 Stepping 9
CreationClassName : Win32_Processor
CurrentClockSpeed : 2900
CurrentVoltage : 8
Manufacturer : GenuineIntel
MaxClockSpeed : 2901
Name : Intel(R) Core(TM) i7-7500U CPU @ 2.70GHz
NumberOfCores : 2
NumberOfLogicalProcessors : 4
PowerManagementSupported : False
Status : OK
=========================================END============================================

13:37:40 725 15 October 2021  Message :- Save call Start

13:37:41 299 15 October 2021  Message :- Zip Start AD

13:37:41 490 15 October 2021  Message :- Zip End

13:37:43 50 15 October 2021  Message :- get Download paramenter 1st time

13:37:43 552 15 October 2021  Message :- start vishal task

13:37:44 493 15 October 2021  Message :- end vishal task

13:37:44 513 15 October 2021  Message :- first time download

13:37:44 535 15 October 2021  Message :-  Done version

13:37:44 535 15 October 2021  Message :-  start Port

13:37:44 535 15 October 2021  Message :-  Got Port

13:37:44 536 15 October 2021  Message :- start opening port

13:37:44 537 15 October 2021  Message :- port open 

13:37:44 537 15 October 2021  Message :- Done ctor, start event instialize

13:37:44 537 15 October 2021  Message :-  open call

13:37:44 544 15 October 2021  Message :- close hota open kela done 

13:37:44 545 15 October 2021  Message :-  open call end ,  start Port Done in PP3 class

13:37:44 568 15 October 2021  Message :-  sent 1st

13:37:44 782 15 October 2021  Message :-  Got 1

13:37:44 909 15 October 2021  Message :-  started sending Application

13:37:44 912 15 October 2021  Message :- Start 0%

13:37:44 913 15 October 2021  Message :- Zip file code started.

13:37:44 919 15 October 2021  Message :- 1st response 221

13:37:44 975 15 October 2021  Message :- 2nd response 221

13:37:45 215 15 October 2021  Message :- Project response 221 Completed :) 

13:37:45 238 15 October 2021  Message :- port Exist and it is Closed

13:37:45 238 15 October 2021  Message :- End 100%

13:39:58 567 15 October 2021  Message :- Save call Start

13:39:59 84 15 October 2021  Message :- Zip Start AD

13:39:59 163 15 October 2021  Message :- Zip End

13:40:00 952 15 October 2021  Message :- get Download paramenter 1st time

13:40:01 446 15 October 2021  Message :- start vishal task

13:40:02 95 15 October 2021  Message :- end vishal task

13:40:02 117 15 October 2021  Message :- first time download

13:40:02 130 15 October 2021  Message :-  Done version

13:40:02 130 15 October 2021  Message :-  start Port

13:40:02 130 15 October 2021  Message :-  Got Port

13:40:02 130 15 October 2021  Message :- start opening port

13:40:02 130 15 October 2021  Message :- port open 

13:40:02 131 15 October 2021  Message :- Done ctor, start event instialize

13:40:02 131 15 October 2021  Message :-  open call

13:40:02 135 15 October 2021  Message :- close hota open kela done 

13:40:02 136 15 October 2021  Message :-  open call end ,  start Port Done in PP3 class

13:40:02 160 15 October 2021  Message :-  sent 1st

13:40:02 371 15 October 2021  Message :-  Got 1

13:40:02 499 15 October 2021  Message :-  started sending Application

13:40:02 500 15 October 2021  Message :- Zip file code started.

13:40:02 505 15 October 2021  Message :- 1st response 221

13:40:02 576 15 October 2021  Message :- 2nd response 221

13:40:02 819 15 October 2021  Message :- Project response 221 Completed :) 

13:40:02 843 15 October 2021  Message :- port Exist and it is Closed

13:40:02 843 15 October 2021  Message :- End 100%

13:46:12 47 15 October 2021  Message :- Save call Start

13:46:12 720 15 October 2021  Message :- Zip Start AD

13:46:12 807 15 October 2021  Message :- Zip End

13:46:14 127 15 October 2021  Message :- get Download paramenter 1st time

13:46:14 610 15 October 2021  Message :- start vishal task

13:46:15 239 15 October 2021  Message :- end vishal task

13:46:15 269 15 October 2021  Message :- first time download

13:46:15 286 15 October 2021  Message :-  Done version

13:46:15 286 15 October 2021  Message :-  start Port

13:46:15 286 15 October 2021  Message :-  Got Port

13:46:15 286 15 October 2021  Message :- start opening port

13:46:15 287 15 October 2021  Message :- port open 

13:46:15 287 15 October 2021  Message :- Done ctor, start event instialize

13:46:15 287 15 October 2021  Message :-  open call

13:46:15 292 15 October 2021  Message :- close hota open kela done 

13:46:15 293 15 October 2021  Message :-  open call end ,  start Port Done in PP3 class

13:46:15 319 15 October 2021  Message :-  sent 1st

13:46:15 532 15 October 2021  Message :-  Got 1

13:46:15 675 15 October 2021  Message :-  started sending Application

13:46:15 676 15 October 2021  Message :- Zip file code started.

13:46:15 681 15 October 2021  Message :- 1st response 221

13:46:15 752 15 October 2021  Message :- 2nd response 221

13:46:16 30 15 October 2021  Message :- Project response 221 Completed :) 

13:46:16 59 15 October 2021  Message :- port Exist and it is Closed

13:46:16 60 15 October 2021  Message :- End 100%

13:52:26 419 15 October 2021  Message :- Save call Start

13:52:27 44 15 October 2021  Message :- Zip Start AD

13:52:27 119 15 October 2021  Message :- Zip End

13:52:28 475 15 October 2021  Message :- get Download paramenter 1st time

13:52:28 973 15 October 2021  Message :- start vishal task

13:52:29 652 15 October 2021  Message :- end vishal task

13:52:29 676 15 October 2021  Message :- first time download

13:52:29 691 15 October 2021  Message :-  Done version

13:52:29 691 15 October 2021  Message :-  start Port

13:52:29 691 15 October 2021  Message :-  Got Port

13:52:29 692 15 October 2021  Message :- start opening port

13:52:29 692 15 October 2021  Message :- port open 

13:52:29 692 15 October 2021  Message :- Done ctor, start event instialize

13:52:29 692 15 October 2021  Message :-  open call

13:52:29 698 15 October 2021  Message :- close hota open kela done 

13:52:29 699 15 October 2021  Message :-  open call end ,  start Port Done in PP3 class

13:52:29 721 15 October 2021  Message :-  sent 1st

13:52:29 935 15 October 2021  Message :-  Got 1

13:52:30 60 15 October 2021  Message :- Start 0%

13:52:30 61 15 October 2021  Message :- Zip file code started.

13:52:30 66 15 October 2021  Message :- 1st response 221

13:52:30 136 15 October 2021  Message :- 2nd response 221

13:52:30 410 15 October 2021  Message :- Project response 221 Completed :) 

13:52:30 434 15 October 2021  Message :- port Exist and it is Closed

13:52:30 434 15 October 2021  Message :- End 100%

13:53:16 134 15 October 2021  Message :- Save call Start

13:53:16 706 15 October 2021  Message :- Zip Start AD

13:53:16 781 15 October 2021  Message :- Zip End

13:53:18 121 15 October 2021  Message :- get Download paramenter 1st time

13:53:18 584 15 October 2021  Message :- start vishal task

13:53:19 137 15 October 2021  Message :- end vishal task

13:53:19 162 15 October 2021  Message :- first time download

13:53:19 177 15 October 2021  Message :-  Done version

13:53:19 177 15 October 2021  Message :-  start Port

13:53:19 178 15 October 2021  Message :-  Got Port

13:53:19 178 15 October 2021  Message :- start opening port

13:53:19 178 15 October 2021  Message :- port open 

13:53:19 178 15 October 2021  Message :- Done ctor, start event instialize

13:53:19 178 15 October 2021  Message :-  open call

13:53:19 183 15 October 2021  Message :- close hota open kela done 

13:53:19 184 15 October 2021  Message :-  open call end ,  start Port Done in PP3 class

13:53:19 212 15 October 2021  Message :-  sent 1st

13:53:19 421 15 October 2021  Message :-  Got 1

13:53:19 547 15 October 2021  Message :- Start 0%

13:53:19 548 15 October 2021  Message :- Zip file code started.

13:53:19 552 15 October 2021  Message :- 1st response 221

13:53:19 624 15 October 2021  Message :- 2nd response 221

13:53:19 859 15 October 2021  Message :- Project response 221 Completed :) 

13:53:19 883 15 October 2021  Message :- port Exist and it is Closed

13:53:19 884 15 October 2021  Message :- End 100%

13:58:43 952 15 October 2021  Message :- Save call Start

13:58:44 527 15 October 2021  Message :- Zip Start AD

13:58:44 622 15 October 2021  Message :- Zip End

13:58:45 990 15 October 2021  Message :- get Download paramenter 1st time

13:58:46 445 15 October 2021  Message :- start vishal task

13:58:47 54 15 October 2021  Message :- end vishal task

13:58:47 82 15 October 2021  Message :- first time download

13:58:47 100 15 October 2021  Message :-  Done version

13:58:47 100 15 October 2021  Message :-  start Port

13:58:47 100 15 October 2021  Message :-  Got Port

13:58:47 101 15 October 2021  Message :- start opening port

13:58:47 101 15 October 2021  Message :- port open 

13:58:47 101 15 October 2021  Message :- Done ctor, start event instialize

13:58:47 101 15 October 2021  Message :-  open call

13:58:47 106 15 October 2021  Message :- close hota open kela done 

13:58:47 107 15 October 2021  Message :-  open call end ,  start Port Done in PP3 class

13:58:47 139 15 October 2021  Message :-  sent 1st

13:58:47 353 15 October 2021  Message :-  Got 1

13:58:47 479 15 October 2021  Message :- Start 0%

13:58:47 480 15 October 2021  Message :- Zip file code started.

13:58:47 488 15 October 2021  Message :- 1st response 221

13:58:47 546 15 October 2021  Message :- 2nd response 221

13:58:47 812 15 October 2021  Message :- Project response 221 Completed :) 

13:58:47 838 15 October 2021  Message :- port Exist and it is Closed

13:58:47 838 15 October 2021  Message :- End 100%

13:59:20 644 15 October 2021  Message :- start opening port

13:59:20 644 15 October 2021  Message :- port open 

13:59:20 648 15 October 2021  Message :- close hota open kela done 

13:59:20 649 15 October 2021  Message :- port Exist and it is Closed

13:59:31 847 15 October 2021  Message :- Save call Start

13:59:32 429 15 October 2021  Message :- Zip Start AD

13:59:32 513 15 October 2021  Message :- Zip End

13:59:33 663 15 October 2021  Message :- get Download paramenter 1st time

13:59:34 94 15 October 2021  Message :- start vishal task

13:59:34 663 15 October 2021  Message :- end vishal task

13:59:34 687 15 October 2021  Message :- first time download

13:59:34 700 15 October 2021  Message :-  Done version

13:59:34 700 15 October 2021  Message :-  start Port

13:59:34 701 15 October 2021  Message :-  Got Port

13:59:34 701 15 October 2021  Message :- start opening port

13:59:34 701 15 October 2021  Message :- port open 

13:59:34 701 15 October 2021  Message :- Done ctor, start event instialize

13:59:34 701 15 October 2021  Message :-  open call

13:59:34 706 15 October 2021  Message :- close hota open kela done 

13:59:34 707 15 October 2021  Message :-  open call end ,  start Port Done in PP3 class

13:59:34 731 15 October 2021  Message :-  sent 1st

13:59:34 946 15 October 2021  Message :-  Got 1

13:59:35 71 15 October 2021  Message :- Start 0%

13:59:35 72 15 October 2021  Message :- Zip file code started.

13:59:35 80 15 October 2021  Message :- 1st response 221

13:59:35 151 15 October 2021  Message :- 2nd response 221

13:59:35 404 15 October 2021  Message :- Project response 221 Completed :) 

13:59:35 430 15 October 2021  Message :- port Exist and it is Closed

13:59:35 430 15 October 2021  Message :- End 100%

13:59:58 587 15 October 2021  Message :- start opening port

13:59:58 588 15 October 2021  Message :- port open 

13:59:58 592 15 October 2021  Message :- close hota open kela done 

13:59:58 593 15 October 2021  Message :- port Exist and it is Closed

14:02:17 604 15 October 2021  Message :- Save call Start

14:02:18 222 15 October 2021  Message :- Zip Start AD

14:02:18 307 15 October 2021  Message :- Zip End

14:02:20 54 15 October 2021  Message :- get Download paramenter 1st time

14:02:20 508 15 October 2021  Message :- start vishal task

14:02:21 95 15 October 2021  Message :- end vishal task

14:02:21 123 15 October 2021  Message :- first time download

14:02:21 140 15 October 2021  Message :-  Done version

14:02:21 140 15 October 2021  Message :-  start Port

14:02:21 140 15 October 2021  Message :-  Got Port

14:02:21 140 15 October 2021  Message :- start opening port

14:02:21 140 15 October 2021  Message :- port open 

14:02:21 141 15 October 2021  Message :- Done ctor, start event instialize

14:02:21 141 15 October 2021  Message :-  open call

14:02:21 146 15 October 2021  Message :- close hota open kela done 

14:02:21 147 15 October 2021  Message :-  open call end ,  start Port Done in PP3 class

14:02:21 184 15 October 2021  Message :-  sent 1st

14:02:21 392 15 October 2021  Message :-  Got 1

14:02:21 531 15 October 2021  Message :-  started sending Application

14:02:21 532 15 October 2021  Message :- Zip file code started.

14:02:21 541 15 October 2021  Message :- 1st response 221

14:02:21 609 15 October 2021  Message :- 2nd response 221

14:02:21 869 15 October 2021  Message :- Project response 221 Completed :) 

14:02:21 898 15 October 2021  Message :- port Exist and it is Closed

14:02:21 898 15 October 2021  Message :- End 100%

14:02:26 679 15 October 2021  Message :- start opening port

14:02:26 680 15 October 2021  Message :- port open 

14:02:26 684 15 October 2021  Message :- close hota open kela done 

14:02:26 685 15 October 2021  Message :- port Exist and it is Closed

14:02:47 256 15 October 2021  Message :- start opening port

14:02:47 256 15 October 2021  Message :- port open 

14:02:47 261 15 October 2021  Message :- close hota open kela done 

14:02:47 262 15 October 2021  Message :- port Exist and it is Closed

14:07:05 519 15 October 2021  Message :- Save call Start

14:07:06 168 15 October 2021  Message :- Zip Start AD

14:07:06 254 15 October 2021  Message :- Zip End

14:07:07 422 15 October 2021  Message :- get Download paramenter 1st time

14:07:07 892 15 October 2021  Message :- start vishal task

14:07:08 445 15 October 2021  Message :- end vishal task

14:07:08 473 15 October 2021  Message :- first time download

14:07:08 489 15 October 2021  Message :-  Done version

14:07:08 489 15 October 2021  Message :-  start Port

14:07:08 490 15 October 2021  Message :-  Got Port

14:07:08 490 15 October 2021  Message :- start opening port

14:07:08 490 15 October 2021  Message :- port open 

14:07:08 490 15 October 2021  Message :- Done ctor, start event instialize

14:07:08 490 15 October 2021  Message :-  open call

14:07:08 495 15 October 2021  Message :- close hota open kela done 

14:07:08 496 15 October 2021  Message :-  open call end ,  start Port Done in PP3 class

14:07:08 531 15 October 2021  Message :-  sent 1st

14:07:08 732 15 October 2021  Message :-  Got 1

14:07:08 872 15 October 2021  Message :-  started sending Application

14:07:08 873 15 October 2021  Message :- Zip file code started.

14:07:08 878 15 October 2021  Message :- 1st response 221

14:07:08 949 15 October 2021  Message :- 2nd response 221

14:07:09 206 15 October 2021  Message :- Project response 221 Completed :) 

14:07:09 240 15 October 2021  Message :- port Exist and it is Closed

14:07:09 241 15 October 2021  Message :- End 100%

14:07:39 658 15 October 2021  Message :- start opening port

14:07:39 658 15 October 2021  Message :- port open 

14:07:39 663 15 October 2021  Message :- close hota open kela done 

14:07:39 664 15 October 2021  Message :- port Exist and it is Closed

14:08:06 293 15 October 2021  Message :- Save call Start

14:08:06 904 15 October 2021  Message :- Zip Start AD

14:08:06 991 15 October 2021  Message :- Zip End

14:08:12 711 15 October 2021  Message :- Save call Start

14:08:13 321 15 October 2021  Message :- Zip Start AD

14:08:13 412 15 October 2021  Message :- Zip End

14:08:14 364 15 October 2021  Message :- get Download paramenter 1st time

14:08:14 800 15 October 2021  Message :- start vishal task

14:08:16 65 15 October 2021  Message :- end vishal task

14:08:16 91 15 October 2021  Message :- first time download

14:08:16 107 15 October 2021  Message :-  Done version

14:08:16 107 15 October 2021  Message :-  start Port

14:08:16 107 15 October 2021  Message :-  Got Port

14:08:16 107 15 October 2021  Message :- start opening port

14:08:16 107 15 October 2021  Message :- port open 

14:08:16 107 15 October 2021  Message :- Done ctor, start event instialize

14:08:16 108 15 October 2021  Message :-  open call

14:08:16 112 15 October 2021  Message :- close hota open kela done 

14:08:16 113 15 October 2021  Message :-  open call end ,  start Port Done in PP3 class

14:08:16 140 15 October 2021  Message :-  sent 1st

14:08:16 342 15 October 2021  Message :-  Got 1

14:08:16 481 15 October 2021  Message :- Start 0%

14:08:16 481 15 October 2021  Message :- Zip file code started.

14:08:16 486 15 October 2021  Message :- 1st response 221

14:08:16 559 15 October 2021  Message :- 2nd response 221

14:08:16 821 15 October 2021  Message :- Project response 221 Completed :) 

14:08:16 851 15 October 2021  Message :- port Exist and it is Closed

14:08:16 851 15 October 2021  Message :- End 100%

14:09:31 986 15 October 2021  Message :- start opening port

14:09:31 986 15 October 2021  Message :- port open 

14:09:31 991 15 October 2021  Message :- close hota open kela done 

14:09:31 992 15 October 2021  Message :- port Exist and it is Closed

14:10:01 917 15 October 2021  Message :- Save call Start

14:10:02 571 15 October 2021  Message :- Zip Start AD

14:10:02 672 15 October 2021  Message :- Zip End

14:10:03 657 15 October 2021  Message :- get Download paramenter 1st time

14:10:04 86 15 October 2021  Message :- start vishal task

14:10:04 654 15 October 2021  Message :- end vishal task

14:10:04 680 15 October 2021  Message :- first time download

14:10:04 695 15 October 2021  Message :-  Done version

14:10:04 695 15 October 2021  Message :-  start Port

14:10:04 695 15 October 2021  Message :-  Got Port

14:10:04 695 15 October 2021  Message :- start opening port

14:10:04 695 15 October 2021  Message :- port open 

14:10:04 695 15 October 2021  Message :- Done ctor, start event instialize

14:10:04 696 15 October 2021  Message :-  open call

14:10:04 700 15 October 2021  Message :- close hota open kela done 

14:10:04 701 15 October 2021  Message :-  open call end ,  start Port Done in PP3 class

14:10:04 733 15 October 2021  Message :-  sent 1st

14:10:04 949 15 October 2021  Message :-  Got 1

14:10:05 75 15 October 2021  Message :-  started sending Application

14:10:05 76 15 October 2021  Message :- Zip file code started.

14:10:05 82 15 October 2021  Message :- 1st response 221

14:10:05 154 15 October 2021  Message :- 2nd response 221

14:10:05 410 15 October 2021  Message :- Project response 221 Completed :) 

14:10:05 439 15 October 2021  Message :- port Exist and it is Closed

14:10:05 439 15 October 2021  Message :- End 100%

14:10:12 560 15 October 2021  Message :- start opening port

14:10:12 561 15 October 2021  Message :- port open 

14:10:12 564 15 October 2021  Message :- close hota open kela done 

14:10:12 565 15 October 2021  Message :- port Exist and it is Closed

14:10:31 644 15 October 2021  Message :- start opening port

14:10:31 644 15 October 2021  Message :- port open 

14:10:31 649 15 October 2021  Message :- close hota open kela done 

14:10:31 650 15 October 2021  Message :- port Exist and it is Closed

14:11:00 780 15 October 2021  Message :- Save call Start

14:11:01 396 15 October 2021  Message :- Zip Start AD

14:11:01 480 15 October 2021  Message :- Zip End

14:11:02 747 15 October 2021  Message :- get Download paramenter 1st time

14:11:03 182 15 October 2021  Message :- start vishal task

14:11:03 750 15 October 2021  Message :- end vishal task

14:11:03 782 15 October 2021  Message :- first time download

14:11:03 798 15 October 2021  Message :-  Done version

14:11:03 798 15 October 2021  Message :-  start Port

14:11:03 798 15 October 2021  Message :-  Got Port

14:11:03 798 15 October 2021  Message :- start opening port

14:11:03 799 15 October 2021  Message :- port open 

14:11:03 799 15 October 2021  Message :- Done ctor, start event instialize

14:11:03 799 15 October 2021  Message :-  open call

14:11:03 804 15 October 2021  Message :- close hota open kela done 

14:11:03 805 15 October 2021  Message :-  open call end ,  start Port Done in PP3 class

14:11:03 843 15 October 2021  Message :-  sent 1st

14:11:04 49 15 October 2021  Message :-  Got 1

14:11:04 189 15 October 2021  Message :-  started sending Application

14:11:04 190 15 October 2021  Message :- Zip file code started.

14:11:04 195 15 October 2021  Message :- 1st response 221

14:11:04 255 15 October 2021  Message :- 2nd response 221

14:11:04 527 15 October 2021  Message :- Project response 221 Completed :) 

14:11:04 556 15 October 2021  Message :- port Exist and it is Closed

14:11:04 556 15 October 2021  Message :- End 100%

14:11:29 295 15 October 2021  Message :- start opening port

14:11:29 295 15 October 2021  Message :- port open 

14:11:29 301 15 October 2021  Message :- close hota open kela done 

14:11:29 302 15 October 2021  Message :- port Exist and it is Closed

14:12:03 808 15 October 2021  Message :- Save call Start

14:12:04 407 15 October 2021  Message :- Zip Start AD

14:12:04 490 15 October 2021  Message :- Zip End

14:12:13 698 15 October 2021  Message :- Save call Start

14:12:14 288 15 October 2021  Message :- Zip Start AD

14:12:14 371 15 October 2021  Message :- Zip End

14:12:15 411 15 October 2021  Message :- get Download paramenter 1st time

14:12:15 830 15 October 2021  Message :- start vishal task

14:12:16 408 15 October 2021  Message :- end vishal task

14:12:16 435 15 October 2021  Message :- first time download

14:12:16 450 15 October 2021  Message :-  Done version

14:12:16 450 15 October 2021  Message :-  start Port

14:12:16 450 15 October 2021  Message :-  Got Port

14:12:16 450 15 October 2021  Message :- start opening port

14:12:16 450 15 October 2021  Message :- port open 

14:12:16 450 15 October 2021  Message :- Done ctor, start event instialize

14:12:16 450 15 October 2021  Message :-  open call

14:12:16 455 15 October 2021  Message :- close hota open kela done 

14:12:16 456 15 October 2021  Message :-  open call end ,  start Port Done in PP3 class

14:12:16 485 15 October 2021  Message :-  sent 1st

14:12:16 697 15 October 2021  Message :-  Got 1

14:12:16 838 15 October 2021  Message :- Start 0%

14:12:16 839 15 October 2021  Message :- Zip file code started.

14:12:16 844 15 October 2021  Message :- 1st response 221

14:12:16 916 15 October 2021  Message :- 2nd response 221

14:12:17 171 15 October 2021  Message :- Project response 221 Completed :) 

14:12:17 200 15 October 2021  Message :- port Exist and it is Closed

14:12:17 201 15 October 2021  Message :- End 100%

14:20:17 177 15 October 2021  Message :- Save call Start

14:20:17 846 15 October 2021  Message :- Zip Start AD

14:20:17 935 15 October 2021  Message :- Zip End

14:20:19 137 15 October 2021  Message :- get Download paramenter 1st time

14:20:19 613 15 October 2021  Message :- start vishal task

14:20:20 195 15 October 2021  Message :- end vishal task

14:20:20 226 15 October 2021  Message :- first time download

14:20:20 241 15 October 2021  Message :-  Done version

14:20:20 242 15 October 2021  Message :-  start Port

14:20:20 242 15 October 2021  Message :-  Got Port

14:20:20 242 15 October 2021  Message :- start opening port

14:20:20 242 15 October 2021  Message :- port open 

14:20:20 243 15 October 2021  Message :- Done ctor, start event instialize

14:20:20 243 15 October 2021  Message :-  open call

14:20:20 247 15 October 2021  Message :- close hota open kela done 

14:20:20 248 15 October 2021  Message :-  open call end ,  start Port Done in PP3 class

14:20:20 288 15 October 2021  Message :-  sent 1st

14:20:20 503 15 October 2021  Message :-  Got 1

14:20:20 644 15 October 2021  Message :- Start 0%

14:20:20 645 15 October 2021  Message :- Zip file code started.

14:20:20 650 15 October 2021  Message :- 1st response 221

14:20:20 722 15 October 2021  Message :- 2nd response 221

14:20:20 968 15 October 2021  Message :- Project response 221 Completed :) 

14:20:20 998 15 October 2021  Message :- port Exist and it is Closed

14:20:20 998 15 October 2021  Message :- End 100%

14:21:02 895 15 October 2021  Message :- Save call Start

14:21:03 517 15 October 2021  Message :- Zip Start AD

14:21:03 596 15 October 2021  Message :- Zip End

14:21:04 905 15 October 2021  Message :- get Download paramenter 1st time

14:21:05 353 15 October 2021  Message :- start vishal task

14:21:05 950 15 October 2021  Message :- end vishal task

14:21:05 982 15 October 2021  Message :- first time download

14:21:05 999 15 October 2021  Message :-  Done version

14:21:06 0 15 October 2021  Message :-  start Port

14:21:06 0 15 October 2021  Message :-  Got Port

14:21:06 0 15 October 2021  Message :- start opening port

14:21:06 0 15 October 2021  Message :- port open 

14:21:06 0 15 October 2021  Message :- Done ctor, start event instialize

14:21:06 1 15 October 2021  Message :-  open call

14:21:06 6 15 October 2021  Message :- close hota open kela done 

14:21:06 7 15 October 2021  Message :-  open call end ,  start Port Done in PP3 class

14:21:06 49 15 October 2021  Message :-  sent 1st

14:21:06 255 15 October 2021  Message :-  Got 1

14:21:06 397 15 October 2021  Message :- Start 0%

14:21:06 398 15 October 2021  Message :- Zip file code started.

14:21:06 404 15 October 2021  Message :- 1st response 221

14:21:06 462 15 October 2021  Message :- 2nd response 221

14:21:06 710 15 October 2021  Message :- Project response 221 Completed :) 

14:21:06 745 15 October 2021  Message :- port Exist and it is Closed

14:21:06 745 15 October 2021  Message :- End 100%

windowsName : Windows 10 Home
version : 6.3
build : 19042
Product ID : 1814
64 Bit operating system? : Yes
===========================================Start==========================================
Caption : Intel64 Family 6 Model 142 Stepping 9
CreationClassName : Win32_Processor
CurrentClockSpeed : 2900
CurrentVoltage : 8
Manufacturer : GenuineIntel
MaxClockSpeed : 2901
Name : Intel(R) Core(TM) i7-7500U CPU @ 2.70GHz
NumberOfCores : 2
NumberOfLogicalProcessors : 4
PowerManagementSupported : False
Status : OK
=========================================END============================================

16:55:56 97 15 October 2021  Message :- Save call Start

16:55:56 629 15 October 2021  Message :- Zip Start AD

16:55:56 701 15 October 2021  Message :- Zip End

16:56:07 806 15 October 2021  Message :- Save call Start

16:56:08 377 15 October 2021  Message :- Zip Start AD

16:56:08 470 15 October 2021  Message :- Zip End

16:56:10 619 15 October 2021  Message :- get Download paramenter 1st time

16:56:11 79 15 October 2021  Message :- start vishal task

16:56:11 903 15 October 2021  Message :- end vishal task

16:56:11 920 15 October 2021  Message :- first time download

16:56:11 936 15 October 2021  Message :-  Done version

16:56:11 937 15 October 2021  Message :-  start Port

16:56:11 937 15 October 2021  Message :-  Got Port

16:56:11 937 15 October 2021  Message :- start opening port

16:56:11 937 15 October 2021  Message :- port open 

16:56:11 938 15 October 2021  Message :- Done ctor, start event instialize

16:56:11 938 15 October 2021  Message :-  open call

16:56:11 945 15 October 2021  Message :- close hota open kela done 

16:56:11 946 15 October 2021  Message :-  open call end ,  start Port Done in PP3 class

16:56:11 970 15 October 2021  Message :-  sent 1st

16:56:12 172 15 October 2021  Message :-  Got 1

16:56:12 297 15 October 2021  Message :-  started sending Application

16:56:12 299 15 October 2021  Message :- Start 0%

16:56:12 300 15 October 2021  Message :- Zip file code started.

16:56:12 306 15 October 2021  Message :- 1st response 221

16:56:12 365 15 October 2021  Message :- 2nd response 221

16:56:12 614 15 October 2021  Message :- Project response 221 Completed :) 

16:56:12 636 15 October 2021  Message :- port Exist and it is Closed

16:56:12 637 15 October 2021  Message :- End 100%
